Location: Zagreb
(45.8000°N, 16.0000°E)
Time: 00:29:21
(UTC+01:00)

Transit 2A Rocket - Pass Details

Date: 08 October 2020
Orbit: 586 x 916 km, 66.7° (Epoch: 28 October)

Event Time Altitude Azimuth Distance (km) Brightness Sun altitude
Rises 00:25:31 0° 325° (NW) 3,390 8.9 -50.0°
Enters shadow 00:26:30 - 325° (NW) 3,012 8.6 -50.0°
Reaches altitude 10° 00:28:05 10° 324° (NW) 2,404 - -50.0°
Maximum altitude 00:33:34 72° 241° (WSW) 797 - -50.1°
Drops below altitude 10° 00:38:30 10° 157° (SSE) 2,166 - -50.1°
Sets 00:40:43 0° 156° (SSE) 3,030 - -50.2°
